NORTHEAST SUFFOLK  -  Wind Advisory Wind Advisory     Wind Advisory Wind Advisory     Rip Current Statement Rip Current Statement     Rip Current Statement Rip Current Statement        NORTHERN NASSAU  -  Wind Advisory Wind Advisory     Wind Advisory Wind Advisory     Coastal Flood Statement Coastal Flood Statement     Rip Current Statement Rip Current Statement     Rip Current Statement Rip Current Statement        NORTHERN QUEENS  -  Wind Advisory Wind Advisory     Coastal Flood Statement Coastal Flood Statement     Rip Current Statement Rip Current Statement     Rip Current Statement Rip Current Statement        NORTHWEST SUFFOLK  -  Wind Advisory Wind Advisory     Wind Advisory Wind Advisory     Rip Current Statement Rip Current Statement     Rip Current Statement Rip Current Statement        SOUTHEAST SUFFOLK  -  Wind Advisory Wind Advisory     Wind Advisory Wind Advisory     Rip Current Statement Rip Current Statement     Rip Current Statement Rip Current Statement        SOUTHERN NASSAU  -  Wind Advisory Wind Advisory     Wind Advisory Wind Advisory     Coastal Flood Statement Coastal Flood Statement     Rip Current Statement Rip Current Statement     Rip Current Statement Rip Current Statement        SOUTHERN QUEENS  -  Wind Advisory Wind Advisory     Coastal Flood Statement Coastal Flood Statement     Rip Current Statement Rip Current Statement     Rip Current Statement Rip Current Statement        SOUTHWEST SUFFOLK  -  Wind Advisory Wind Advisory     Wind Advisory Wind Advisory     Rip Current Statement Rip Current Statement     Rip Current Statement Rip Current Statement      

Active alerts

Northern Queens
  Details for Northern Queens Wind Advisory  +3 additional alerts
Southern Queens
  Details for Southern Queens Wind Advisory  +3 additional alerts
Northern Nassau
  Details for Northern Nassau Wind Advisory  +4 additional alerts
Southern Nassau
  Details for Southern Nassau Wind Advisory  +4 additional alerts
Northwest Suffolk
  Details for Northwest Suffolk Wind Advisory  +3 additional alerts
Southwest Suffolk
  Details for Southwest Suffolk Wind Advisory  +3 additional alerts
Northeast Suffolk
  Details for Northeast Suffolk Wind Advisory  +3 additional alerts
Southeast Suffolk
  Details for Southeast Suffolk Wind Advisory  +3 additional alerts


WXM80 ListenWXM80 Stop

You find our weather info also at:

UK Metoffice

WeatherCloud

Weather Underground

Northeastern Weather Network

AWEKAS

Citizen Weather Observer Program (CWOP)

HAMweather, WeatherForYou, PWS Weather


Weather Underground History page Text

Daily Summary for May 23, 2016 Units:  English    Metric   Both
« Previous Day
Next Day »
Daily Weekly Monthly Yearly Custom
  High: Low: Average:
Temperature: 80.9 °F 50.5 °F 64.2 °F
Dew Point: 60.0 °F 48.4 °F 53.2 °F
Humidity: 97 % 41 % 70 %
Wind Speed: 9.9 mph 0.0 mph 1.2 mph
Wind Gust: 15.0 mph - -
Wind:- - ESE
Pressure: 29.91 in 29.82 in -
Precipitation: 0.00 in    
Historical Graphs
 
 
Tabular Data for May 23, 2016
Time Temperature Dew Point Pressure Wind Wind Speed Wind Gust Humidity Rainfall Rate (Hourly)
00:04 57.3 °F 53.1 °F 29.87 in WSW 1.9 mph 3.5 mph 86 % 0.00 in
00:09 57.2 °F 53.0 °F 29.87 in WSW 0.5 mph 2.3 mph 86 % 0.00 in
00:14 57.1 °F 53.0 °F 29.87 in WSW 0.1 mph 1.2 mph 86 % 0.00 in
00:19 57.0 °F 52.9 °F 29.87 in WSW 1.1 mph 3.5 mph 86 % 0.00 in
00:24 56.9 °F 53.1 °F 29.87 in Calm   1.2 mph 87 % 0.00 in
00:29 56.8 °F 53.0 °F 29.87 in Calm     87 % 0.00 in
00:34 56.7 °F 52.9 °F 29.88 in Calm     87 % 0.00 in
00:39 56.6 °F 52.8 °F 29.88 in Calm     87 % 0.00 in
00:44 56.4 °F 52.6 °F 29.88 in WSW 0.3 mph 1.2 mph 87 % 0.00 in
00:50 56.2 °F 52.4 °F 29.88 in Calm     87 % 0.00 in
00:55 56.1 °F 52.3 °F 29.88 in Calm     87 % 0.00 in
01:00 56.0 °F 52.2 °F 29.88 in Calm     87 % 0.00 in
01:05 55.9 °F 52.1 °F 29.88 in Calm     87 % 0.00 in
01:10 55.7 °F 52.2 °F 29.88 in Calm     88 % 0.00 in
01:15 55.6 °F 52.1 °F 29.88 in Calm     88 % 0.00 in
01:20 55.5 °F 52.0 °F 29.88 in Calm     88 % 0.00 in
01:25 55.3 °F 51.8 °F 29.88 in Calm     88 % 0.00 in
01:30 55.2 °F 52.0 °F 29.88 in Calm     89 % 0.00 in
01:36 55.1 °F 51.9 °F 29.88 in Calm     89 % 0.00 in
01:41 55.0 °F 52.1 °F 29.88 in Calm     90 % 0.00 in
01:51 54.8 °F 51.9 °F 29.88 in Calm     90 % 0.00 in
01:56 54.6 °F 51.7 °F 29.87 in Calm     90 % 0.00 in
02:01 54.5 °F 51.6 °F 29.87 in Calm     90 % 0.00 in
02:06 54.4 °F 51.5 °F 29.87 in Calm     90 % 0.00 in
02:11 54.3 °F 51.4 °F 29.86 in Calm     90 % 0.00 in
02:16 54.2 °F 51.3 °F 29.86 in Calm     90 % 0.00 in
02:21 54.1 °F 51.2 °F 29.87 in Calm     90 % 0.00 in
02:27 54.0 °F 51.1 °F 29.86 in Calm     90 % 0.00 in
02:32 53.9 °F 51.3 °F 29.86 in Calm     91 % 0.00 in
02:37 53.7 °F 51.1 °F 29.86 in Calm     91 % 0.00 in
02:42 53.6 °F 51.0 °F 29.86 in Calm     91 % 0.00 in
02:47 53.5 °F 50.9 °F 29.86 in Calm     91 % 0.00 in
02:52 53.4 °F 50.8 °F 29.86 in Calm     91 % 0.00 in
02:57 53.3 °F 50.7 °F 29.86 in Calm     91 % 0.00 in
03:02 53.2 °F 50.6 °F 29.86 in Calm     91 % 0.00 in
03:07 53.1 °F 50.5 °F 29.86 in Calm     91 % 0.00 in
03:12 53.0 °F 50.4 °F 29.86 in Calm     91 % 0.00 in
03:18 52.9 °F 50.3 °F 29.86 in Calm     91 % 0.00 in
03:23 52.8 °F 50.2 °F 29.86 in Calm     91 % 0.00 in
03:28 52.7 °F 50.4 °F 29.86 in Calm     92 % 0.00 in
03:33 52.6 °F 50.0 °F 29.86 in Calm     91 % 0.00 in
03:38 52.4 °F 50.1 °F 29.86 in Calm     92 % 0.00 in
03:43 52.3 °F 50.0 °F 29.86 in Calm     92 % 0.00 in
03:53 52.1 °F 49.8 °F 29.87 in Calm     92 % 0.00 in
03:58 52.0 °F 49.7 °F 29.86 in Calm     92 % 0.00 in
04:03 51.9 °F 49.6 °F 29.86 in Calm     92 % 0.00 in
04:14 51.7 °F 49.5 °F 29.87 in Calm     92 % 0.00 in
04:19 51.6 °F 49.4 °F 29.87 in Calm     92 % 0.00 in
04:24 51.5 °F 49.3 °F 29.88 in Calm     92 % 0.00 in
04:29 51.4 °F 49.2 °F 29.88 in Calm     92 % 0.00 in
04:34 51.3 °F 49.1 °F 29.88 in Calm     92 % 0.00 in
04:39 51.2 °F 49.0 °F 29.88 in Calm     92 % 0.00 in
04:44 51.0 °F 48.8 °F 29.87 in Calm     92 % 0.00 in
04:49 51.0 °F 48.8 °F 29.87 in Calm     92 % 0.00 in
04:54 50.9 °F 48.7 °F 29.87 in Calm     92 % 0.00 in
05:00 50.8 °F 48.8 °F 29.87 in Calm     93 % 0.00 in
05:05 50.7 °F 48.7 °F 29.88 in Calm     93 % 0.00 in
05:10 50.8 °F 48.8 °F 29.88 in Calm   1.2 mph 93 % 0.00 in
05:15 50.8 °F 48.8 °F 29.88 in Calm     93 % 0.00 in
05:20 50.7 °F 48.7 °F 29.88 in Calm     93 % 0.00 in
05:25 50.7 °F 48.7 °F 29.88 in Calm     93 % 0.00 in
05:30 50.7 °F 49.0 °F 29.88 in Calm     94 % 0.00 in
05:40 50.6 °F 48.9 °F 29.88 in Calm     94 % 0.00 in
05:45 50.6 °F 48.9 °F 29.88 in Calm     94 % 0.00 in
05:56 50.5 °F 48.8 °F 29.88 in Calm     94 % 0.00 in
06:01 50.6 °F 48.9 °F 29.89 in Calm     94 % 0.00 in
06:06 50.6 °F 48.9 °F 29.89 in Calm     94 % 0.00 in
06:11 50.7 °F 49.3 °F 29.89 in Calm     95 % 0.00 in
06:16 50.9 °F 49.5 °F 29.89 in Calm     95 % 0.00 in
06:26 51.4 °F 50.0 °F 29.89 in Calm     95 % 0.00 in
06:31 51.8 °F 50.7 °F 29.89 in Calm     96 % 0.00 in
06:36 52.3 °F 51.2 °F 29.89 in Calm     96 % 0.00 in
06:42 53.0 °F 52.2 °F 29.89 in Calm     97 % 0.00 in
06:47 53.7 °F 52.9 °F 29.90 in Calm     97 % 0.00 in
06:52 54.5 °F 53.7 °F 29.90 in Calm     97 % 0.00 in
06:57 55.4 °F 54.6 °F 29.90 in Calm     97 % 0.00 in
07:02 56.6 °F 55.8 °F 29.90 in WSW 0.4 mph 2.3 mph 97 % 0.00 in
07:07 57.3 °F 56.5 °F 29.90 in WSW 0.2 mph 1.2 mph 97 % 0.00 in
07:12 57.8 °F 57.0 °F 29.90 in Calm   1.2 mph 97 % 0.00 in
07:17 58.4 °F 57.6 °F 29.90 in Calm     97 % 0.00 in
07:22 59.1 °F 58.0 °F 29.90 in Calm     96 % 0.00 in
07:27 59.6 °F 58.2 °F 29.90 in Calm     95 % 0.00 in
07:33 60.1 °F 58.1 °F 29.90 in WSW 0.1 mph 1.2 mph 93 % 0.00 in
07:38 60.7 °F 58.1 °F 29.90 in Calm   1.2 mph 91 % 0.00 in
07:43 61.2 °F 57.6 °F 29.90 in Calm     88 % 0.00 in
07:48 61.5 °F 56.9 °F 29.90 in WSW 0.1 mph   85 % 0.00 in
07:53 61.8 °F 57.2 °F 29.90 in WSW 0.6 mph 2.3 mph 85 % 0.00 in
07:58 61.9 °F 56.3 °F 29.90 in WSW 1.2 mph 2.3 mph 82 % 0.00 in
08:03 62.2 °F 57.0 °F 29.91 in WSW 0.6 mph 1.2 mph 83 % 0.00 in
08:08 62.4 °F 56.1 °F 29.91 in WSW 1.0 mph 2.3 mph 80 % 0.00 in
08:13 62.5 °F 56.2 °F 29.91 in NNW 1.2 mph 3.5 mph 80 % 0.00 in
08:18 62.7 °F 56.4 °F 29.91 in NNW 1.4 mph 2.3 mph 80 % 0.00 in
08:24 62.9 °F 56.3 °F 29.91 in North 1.2 mph 3.5 mph 79 % 0.00 in
08:29 63.1 °F 56.5 °F 29.91 in NE 1.9 mph 3.5 mph 79 % 0.00 in
08:34 63.2 °F 56.9 °F 29.91 in North 2.1 mph 3.5 mph 80 % 0.00 in
08:39 63.3 °F 56.7 °F 29.91 in North 1.7 mph 3.5 mph 79 % 0.00 in
08:44 63.5 °F 56.5 °F 29.91 in NE 3.7 mph 4.6 mph 78 % 0.00 in
08:49 63.3 °F 56.0 °F 29.91 in ENE 2.2 mph 3.5 mph 77 % 0.00 in
08:54 62.9 °F 55.6 °F 29.91 in ENE 2.4 mph 3.5 mph 77 % 0.00 in
08:59 62.9 °F 56.6 °F 29.91 in NNE 1.3 mph 3.5 mph 80 % 0.00 in
09:04 63.0 °F 56.0 °F 29.91 in NE 1.6 mph 2.3 mph 78 % 0.00 in
09:09 63.2 °F 56.6 °F 29.91 in NE 1.9 mph 3.5 mph 79 % 0.00 in
09:15 63.4 °F 56.8 °F 29.91 in ENE 2.4 mph 3.5 mph 79 % 0.00 in
09:20 63.3 °F 56.0 °F 29.91 in ENE 1.8 mph 3.5 mph 77 % 0.00 in
09:25 63.2 °F 56.2 °F 29.91 in ENE 1.5 mph 3.5 mph 78 % 0.00 in
09:30 63.6 °F 57.0 °F 29.91 in NNE 2.0 mph 3.5 mph 79 % 0.00 in
09:35 63.9 °F 57.3 °F 29.90 in NNE 2.3 mph 3.5 mph 79 % 0.00 in
09:40 64.4 °F 57.4 °F 29.90 in NNE 2.5 mph 4.0 mph 78 % 0.00 in
09:45 64.9 °F 57.2 °F 29.90 in NNE 2.4 mph 3.5 mph 76 % 0.00 in
09:50 65.7 °F 57.9 °F 29.90 in North 3.0 mph 7.0 mph 76 % 0.00 in
09:55 66.2 °F 57.3 °F 29.91 in ENE 1.6 mph 3.5 mph 73 % 0.00 in
10:00 66.4 °F 57.9 °F 29.90 in NNE 1.5 mph 3.5 mph 74 % 0.00 in
10:06 66.7 °F 58.1 °F 29.90 in North 2.5 mph 4.0 mph 74 % 0.00 in
10:11 67.0 °F 58.1 °F 29.90 in ENE 3.2 mph 5.0 mph 73 % 0.00 in
10:16 66.8 °F 58.2 °F 29.90 in ENE 2.9 mph 4.6 mph 74 % 0.00 in
10:21 66.0 °F 57.5 °F 29.90 in ENE 3.3 mph 4.6 mph 74 % 0.00 in
10:26 65.1 °F 56.6 °F 29.90 in ENE 2.8 mph 4.6 mph 74 % 0.00 in
10:31 65.2 °F 57.8 °F 29.90 in NE 3.3 mph 5.0 mph 77 % 0.00 in
10:36 65.1 °F 58.1 °F 29.90 in North 2.1 mph 3.5 mph 78 % 0.00 in
10:41 65.3 °F 58.6 °F 29.90 in ENE 2.8 mph 4.0 mph 79 % 0.00 in
10:46 65.6 °F 56.7 °F 29.90 in ENE 4.0 mph 4.6 mph 73 % 0.00 in
10:51 65.5 °F 57.0 °F 29.90 in NE 3.4 mph 5.0 mph 74 % 0.00 in
10:57 65.9 °F 58.5 °F 29.90 in ENE 1.2 mph 3.5 mph 77 % 0.00 in
11:02 66.6 °F 58.1 °F 29.90 in ENE 1.5 mph 3.5 mph 74 % 0.00 in
11:07 67.1 °F 57.8 °F 29.90 in ENE 2.4 mph 3.5 mph 72 % 0.00 in
11:12 67.6 °F 58.2 °F 29.90 in ENE 1.8 mph 3.5 mph 72 % 0.00 in
11:17 68.8 °F 59.8 °F 29.90 in NE 1.7 mph 3.5 mph 73 % 0.00 in
11:22 69.3 °F 58.7 °F 29.90 in ENE 2.0 mph 3.5 mph 69 % 0.00 in
11:27 69.0 °F 58.0 °F 29.90 in NE 2.2 mph 3.5 mph 68 % 0.00 in
11:32 68.8 °F 58.6 °F 29.90 in ENE 3.7 mph 6.0 mph 70 % 0.00 in
11:37 68.6 °F 58.8 °F 29.90 in NNE 3.3 mph 4.6 mph 71 % 0.00 in
11:42 68.4 °F 57.4 °F 29.90 in ENE 2.3 mph 3.5 mph 68 % 0.00 in
11:48 68.3 °F 58.1 °F 29.90 in ENE 4.0 mph 5.0 mph 70 % 0.00 in
11:53 68.8 °F 59.0 °F 29.90 in ENE 1.4 mph 2.3 mph 71 % 0.00 in
11:58 68.9 °F 59.1 °F 29.90 in ENE 0.4 mph 2.3 mph 71 % 0.00 in
12:03 69.4 °F 58.8 °F 29.89 in NE 1.8 mph 4.0 mph 69 % 0.00 in
12:08 70.4 °F 59.3 °F 29.89 in NE 0.6 mph 2.0 mph 68 % 0.00 in
12:13 70.9 °F 58.5 °F 29.89 in NE 1.5 mph 3.5 mph 65 % 0.00 in
12:18 71.5 °F 59.1 °F 29.89 in NE 0.4 mph 2.0 mph 65 % 0.00 in
12:23 72.2 °F 59.3 °F 29.89 in ENE 2.2 mph 3.5 mph 64 % 0.00 in
12:33 73.8 °F 60.0 °F 29.89 in ENE 2.9 mph 4.0 mph 62 % 0.00 in
12:39 73.9 °F 57.2 °F 29.89 in NE 4.2 mph 6.9 mph 56 % 0.00 in
12:44 73.4 °F 55.7 °F 29.89 in ENE 4.0 mph 5.0 mph 54 % 0.00 in
12:49 73.3 °F 57.1 °F 29.89 in ENE 1.6 mph 3.5 mph 57 % 0.00 in
12:54 73.9 °F 56.2 °F 29.89 in ENE 1.4 mph 3.5 mph 54 % 0.00 in
12:59 73.9 °F 54.6 °F 29.89 in ENE 4.0 mph 6.9 mph 51 % 0.00 in
13:04 73.4 °F 54.7 °F 29.89 in ENE 3.4 mph 6.9 mph 52 % 0.00 in
13:09 73.0 °F 55.4 °F 29.89 in NE 3.6 mph 5.0 mph 54 % 0.00 in
13:14 73.1 °F 53.9 °F 29.89 in NE 3.3 mph 5.0 mph 51 % 0.00 in
13:19 73.2 °F 55.6 °F 29.89 in ENE 0.4 mph 3.5 mph 54 % 0.00 in
13:24 74.1 °F 56.9 °F 29.89 in ENE 1.7 mph 3.5 mph 55 % 0.00 in
13:30 74.2 °F 55.4 °F 29.88 in ENE 3.1 mph 4.0 mph 52 % 0.00 in
13:35 74.3 °F 55.5 °F 29.88 in ENE 2.5 mph 4.6 mph 52 % 0.00 in
13:40 74.7 °F 58.0 °F 29.88 in ENE 0.8 mph 2.3 mph 56 % 0.00 in
13:45 75.6 °F 57.3 °F 29.87 in NE 1.3 mph 4.0 mph 53 % 0.00 in
13:50 76.3 °F 57.4 °F 29.87 in ENE 1.9 mph 4.0 mph 52 % 0.00 in
13:55 76.8 °F 57.3 °F 29.87 in ENE 3.0 mph 6.9 mph 51 % 0.00 in
14:00 77.3 °F 57.2 °F 29.86 in ENE 2.1 mph 4.6 mph 50 % 0.00 in
14:05 77.8 °F 56.5 °F 29.86 in ENE 1.8 mph 2.3 mph 48 % 0.00 in
14:10 78.4 °F 57.1 °F 29.86 in ENE 1.3 mph 2.3 mph 48 % 0.00 in
14:21 79.1 °F 57.1 °F 29.86 in ENE 1.9 mph 4.0 mph 47 % 0.00 in
14:26 79.5 °F 57.5 °F 29.86 in ENE 0.4 mph 2.3 mph 47 % 0.00 in
14:31 79.8 °F 55.9 °F 29.85 in ENE 3.6 mph 4.6 mph 44 % 0.00 in
14:36 79.8 °F 56.6 °F 29.85 in ENE 1.1 mph 2.3 mph 45 % 0.00 in
14:41 80.0 °F 57.4 °F 29.85 in ENE 1.1 mph 4.0 mph 46 % 0.00 in
14:46 80.1 °F 58.0 °F 29.85 in ENE 1.3 mph 3.5 mph 47 % 0.00 in
14:51 80.3 °F 57.0 °F 29.85 in ENE 2.9 mph 6.9 mph 45 % 0.00 in
14:56 80.3 °F 55.8 °F 29.84 in ENE 1.7 mph 3.5 mph 43 % 0.00 in
15:01 80.4 °F 57.1 °F 29.84 in ENE 1.7 mph 3.5 mph 45 % 0.00 in
15:07 80.6 °F 57.9 °F 29.84 in ENE 1.2 mph 2.3 mph 46 % 0.00 in
15:12 80.7 °F 58.0 °F 29.84 in ENE 1.4 mph 4.0 mph 46 % 0.00 in
15:17 80.9 °F 55.7 °F 29.84 in ENE 4.1 mph 5.8 mph 42 % 0.00 in
15:22 80.8 °F 56.2 °F 29.83 in ENE 1.3 mph 3.5 mph 43 % 0.00 in
15:27 80.6 °F 54.7 °F 29.83 in ENE 3.6 mph 7.0 mph 41 % 0.00 in
15:32 80.0 °F 56.7 °F 29.83 in NE 3.0 mph 4.6 mph 45 % 0.00 in
15:37 79.9 °F 57.9 °F 29.83 in ENE 0.9 mph 3.5 mph 47 % 0.00 in
15:42 79.8 °F 57.8 °F 29.83 in East 3.3 mph 6.0 mph 47 % 0.00 in
15:47 79.8 °F 57.8 °F 29.83 in ENE 0.9 mph 2.3 mph 47 % 0.00 in
15:52 79.7 °F 57.7 °F 29.83 in ENE 3.1 mph 3.5 mph 47 % 0.00 in
15:58 79.3 °F 57.9 °F 29.83 in ENE 1.8 mph 3.5 mph 48 % 0.00 in
16:03 78.5 °F 57.7 °F 29.83 in ENE 2.0 mph 3.5 mph 49 % 0.00 in
16:08 77.5 °F 57.9 °F 29.83 in ENE 1.7 mph 3.5 mph 51 % 0.00 in
16:13 76.7 °F 58.8 °F 29.83 in ENE 0.4 mph 2.3 mph 54 % 0.00 in
16:18 76.2 °F 56.7 °F 29.83 in South 2.0 mph 5.8 mph 51 % 0.00 in
16:23 75.6 °F 55.1 °F 29.83 in SSW 1.5 mph 5.8 mph 49 % 0.00 in
16:28 74.8 °F 54.9 °F 29.83 in South 3.6 mph 5.8 mph 50 % 0.00 in
16:33 74.0 °F 54.2 °F 29.83 in SE 5.3 mph 7.0 mph 50 % 0.00 in
16:38 73.5 °F 53.2 °F 29.83 in SE 3.9 mph 12.7 mph 49 % 0.00 in
16:43 72.9 °F 53.2 °F 29.83 in South 4.9 mph 10.4 mph 50 % 0.00 in
16:49 72.2 °F 52.0 °F 29.83 in SSE 2.4 mph 11.5 mph 49 % 0.00 in
16:54 71.6 °F 52.0 °F 29.83 in SSW 1.5 mph 5.8 mph 50 % 0.00 in
16:59 71.4 °F 51.8 °F 29.83 in South 2.7 mph 11.5 mph 50 % 0.00 in
17:04 71.1 °F 51.5 °F 29.83 in SSE 3.5 mph 7.0 mph 50 % 0.00 in
17:09 70.6 °F 50.5 °F 29.83 in South 9.9 mph 15.0 mph 49 % 0.00 in
17:14 70.2 °F 50.7 °F 29.83 in SE 4.6 mph 8.1 mph 50 % 0.00 in
17:19 70.0 °F 50.5 °F 29.83 in SSW 2.6 mph 8.1 mph 50 % 0.00 in
17:24 69.9 °F 50.4 °F 29.83 in SW 4.0 mph 9.2 mph 50 % 0.00 in
17:29 69.8 °F 49.8 °F 29.83 in ESE 4.7 mph 9.2 mph 49 % 0.00 in
17:34 69.5 °F 50.0 °F 29.83 in SSW 1.9 mph 4.6 mph 50 % 0.00 in
17:40 69.4 °F 49.9 °F 29.82 in SE 0.4 mph 3.5 mph 50 % 0.00 in
17:45 69.4 °F 49.9 °F 29.82 in South 2.8 mph 4.0 mph 50 % 0.00 in
17:50 69.4 °F 49.4 °F 29.82 in SE 1.5 mph 4.6 mph 49 % 0.00 in
17:55 69.2 °F 48.7 °F 29.83 in SW 3.3 mph 11.5 mph 48 % 0.00 in
18:00 69.1 °F 49.1 °F 29.83 in SSW 1.2 mph 4.6 mph 49 % 0.00 in
18:05 69.2 °F 49.8 °F 29.83 in SW 0.7 mph 2.3 mph 50 % 0.00 in
18:10 69.4 °F 49.4 °F 29.83 in SSE 0.4 mph 2.3 mph 49 % 0.00 in
18:15 69.5 °F 49.5 °F 29.83 in SW 1.1 mph 2.3 mph 49 % 0.00 in
18:20 69.5 °F 48.4 °F 29.84 in SSE 6.3 mph 8.0 mph 47 % 0.00 in
18:25 69.4 °F 49.9 °F 29.83 in SE 2.4 mph 5.0 mph 50 % 0.00 in
18:31 69.2 °F 49.2 °F 29.83 in SE 2.4 mph 5.8 mph 49 % 0.00 in
18:36 69.1 °F 49.7 °F 29.84 in SSE 1.7 mph 3.5 mph 50 % 0.00 in
18:41 69.0 °F 49.6 °F 29.84 in South 0.6 mph 3.5 mph 50 % 0.00 in
18:46 68.8 °F 49.9 °F 29.84 in SE 0.4 mph 2.0 mph 51 % 0.00 in
18:51 68.8 °F 49.9 °F 29.84 in SSE 1.0 mph 2.3 mph 51 % 0.00 in
18:56 68.6 °F 49.2 °F 29.84 in SSE 0.2 mph 1.2 mph 50 % 0.00 in
19:01 68.5 °F 49.7 °F 29.84 in SE 2.6 mph 6.0 mph 51 % 0.00 in
19:06 68.3 °F 49.5 °F 29.85 in SE 1.7 mph 3.5 mph 51 % 0.00 in
19:11 68.3 °F 50.0 °F 29.85 in SE 2.0 mph 3.5 mph 52 % 0.00 in
19:16 68.1 °F 49.8 °F 29.85 in SE 4.7 mph 5.8 mph 52 % 0.00 in
19:22 67.9 °F 49.6 °F 29.85 in SSE 0.2 mph 1.0 mph 52 % 0.00 in
19:27 67.7 °F 49.9 °F 29.85 in Calm     53 % 0.00 in
19:32 67.6 °F 49.9 °F 29.85 in Calm     53 % 0.00 in
19:37 67.3 °F 49.6 °F 29.85 in SE 1.9 mph 3.5 mph 53 % 0.00 in
19:42 67.0 °F 48.8 °F 29.86 in SE 0.6 mph 3.0 mph 52 % 0.00 in
19:47 66.9 °F 49.2 °F 29.86 in SE 0.1 mph 1.2 mph 53 % 0.00 in
19:57 66.6 °F 48.9 °F 29.86 in SE 0.5 mph 2.3 mph 53 % 0.00 in
20:02 66.5 °F 48.8 °F 29.86 in SE 1.0 mph 3.5 mph 53 % 0.00 in
20:07 66.4 °F 49.2 °F 29.86 in Calm     54 % 0.00 in
20:13 66.3 °F 49.6 °F 29.86 in Calm   2.3 mph 55 % 0.00 in
20:18 66.2 °F 49.6 °F 29.86 in Calm   1.2 mph 55 % 0.00 in
20:23 66.0 °F 49.4 °F 29.86 in Calm     55 % 0.00 in
20:28 65.9 °F 49.3 °F 29.87 in Calm     55 % 0.00 in
20:33 65.8 °F 49.2 °F 29.87 in Calm     55 % 0.00 in
20:38 65.6 °F 49.5 °F 29.86 in Calm     56 % 0.00 in
20:43 65.5 °F 49.4 °F 29.86 in Calm   1.2 mph 56 % 0.00 in
20:48 65.4 °F 49.3 °F 29.86 in Calm     56 % 0.00 in
20:53 65.3 °F 49.7 °F 29.86 in SE 0.8 mph 2.3 mph 57 % 0.00 in
20:58 65.1 °F 49.5 °F 29.86 in Calm   1.2 mph 57 % 0.00 in
21:04 65.0 °F 49.4 °F 29.86 in Calm   1.0 mph 57 % 0.00 in
21:09 64.9 °F 49.8 °F 29.87 in Calm     58 % 0.00 in
21:14 64.8 °F 49.7 °F 29.87 in SE 1.1 mph 2.3 mph 58 % 0.00 in
21:19 64.7 °F 50.0 °F 29.87 in Calm     59 % 0.00 in
21:24 64.5 °F 49.4 °F 29.87 in SE 0.1 mph 1.2 mph 58 % 0.00 in
21:34 64.3 °F 49.7 °F 29.87 in Calm     59 % 0.00 in
21:39 64.2 °F 49.6 °F 29.87 in Calm     59 % 0.00 in
21:44 64.1 °F 49.9 °F 29.88 in Calm     60 % 0.00 in
21:49 64.0 °F 51.1 °F 29.88 in SE 0.4 mph 1.2 mph 63 % 0.00 in
22:00 63.7 °F 50.0 °F 29.88 in SE 0.3 mph 2.0 mph 61 % 0.00 in
22:05 63.6 °F 49.9 °F 29.88 in Calm   2.3 mph 61 % 0.00 in
22:10 63.5 °F 49.8 °F 29.89 in Calm     61 % 0.00 in
22:15 63.4 °F 49.7 °F 29.89 in Calm     61 % 0.00 in
22:25 63.3 °F 50.1 °F 29.89 in Calm     62 % 0.00 in
22:30 63.3 °F 50.1 °F 29.89 in Calm     62 % 0.00 in
22:35 63.2 °F 50.4 °F 29.89 in Calm     63 % 0.00 in
22:46 63.0 °F 50.2 °F 29.88 in Calm     63 % 0.00 in
22:51 62.9 °F 50.1 °F 29.89 in SE 0.3 mph 2.3 mph 63 % 0.00 in
22:56 62.9 °F 50.1 °F 29.89 in Calm   1.2 mph 63 % 0.00 in
23:01 62.8 °F 50.0 °F 29.89 in SE 0.1 mph 1.0 mph 63 % 0.00 in
23:06 62.7 °F 49.9 °F 29.89 in Calm     63 % 0.00 in
23:11 62.6 °F 50.2 °F 29.89 in SE 0.1 mph 1.2 mph 64 % 0.00 in
23:16 62.5 °F 50.2 °F 29.89 in Calm     64 % 0.00 in
23:21 62.5 °F 50.2 °F 29.89 in Calm     64 % 0.00 in
23:26 62.5 °F 51.4 °F 29.89 in Calm     67 % 0.00 in
23:31 62.5 °F 52.2 °F 29.89 in Calm     69 % 0.00 in
23:37 62.3 °F 52.0 °F 29.89 in Calm     69 % 0.00 in
23:47 62.0 °F 52.9 °F 29.89 in Calm     72 % 0.00 in
23:52 61.8 °F 53.8 °F 29.90 in Calm     75 % 0.00 in
23:57 61.6 °F 54.0 °F 29.90 in Calm     76 % 0.00 in
Crab Meadow Weather
Compliments of Weather Underground - 3 mb

Script developed by  Jim McMurry - jmcmurry@mwt.net Adapted for the template by  Wim van der Kuil - Leuven-Template.eu

Weather Terms: Flood Stage - The level or stage at which a stream overflows its banks or the stage at which the overflow of a stream begins to cause damage.